EW7738 Weather Reports


Display with metric or nautical units.
time (UTC)temp
F
wind
direction
speed
MPH
gust
MPH
rain 1hr
in
rain 24hr
in
rain mn
in
humidity
%
barometer
mb
20210917153304 73 24 0.0 0.0 0.00 0.01 0.01 86 1023.3
20210917152804 73 34 0.0 0.0 0.00 0.01 0.01 86 1023.3
20210917152306 73 48 0.0 0.0 0.00 0.01 0.01 86 1023.3
20210917151804 73 32 0.0 0.0 0.00 0.01 0.01 87 1023.3
20210917151303 72 35 0.0 0.0 0.00 0.01 0.01 87 1023.3
20210917150804 72 36 0.0 0.0 0.00 0.01 0.01 87 1023.4
20210917150304 72 345 0.0 0.0 0.00 0.01 0.01 87 1023.4
20210917145804 72 26 0.0 0.0 0.00 0.01 0.01 88 1023.4
20210917145305 72 25 0.0 0.0 0.00 0.01 0.01 88 1023.4
20210917144804 72 11 0.0 0.0 0.00 0.01 0.01 88 1023.5
20210917144304 72 97 0.0 0.0 0.00 0.01 0.01 88 1023.4
20210917143803 72 9 0.0 0.0 0.00 0.01 0.01 88 1023.4
20210917143303 72 26 0.0 0.0 0.00 0.01 0.01 89 1023.4
20210917142804 72 146 0.0 0.0 0.00 0.01 0.01 89 1023.5
20210917142306 72 24 0.0 0.0 0.00 0.01 0.01 89 1023.5
20210917141804 71 189 0.0 0.0 0.00 0.01 0.01 89 1023.4
20210917141303 71 90 0.0 0.0 0.00 0.01 0.01 89 1023.4
20210917140804 71 30 0.0 0.0 0.00 0.01 0.01 89 1023.4
20210917140303 71 44 0.0 0.0 0.00 0.01 0.01 89 1023.4
20210917135804 71 32 0.0 0.0 0.00 0.01 0.01 90 1023.4
20210917135305 71 52 0.0 0.0 0.00 0.01 0.01 90 1023.5
20210917134804 71 29 0.0 0.0 0.00 0.01 0.01 91 1023.4
20210917134303 70 20 0.0 0.0 0.00 0.01 0.01 91 1023.4
20210917133804 70 20 0.0 0.0 0.00 0.01 0.01 92 1023.4
20210917133304 70 37 0.0 0.0 0.00 0.01 0.01 92 1023.4
20210917132804 70 45 0.0 0.0 0.00 0.01 0.01 93 1023.4
20210917132305 70 29 0.0 0.0 0.00 0.01 0.01 93 1023.3
20210917131803 69 34 0.0 0.0 0.00 0.01 0.01 93 1023.3
20210917131303 69 42 0.0 0.0 0.00 0.01 0.01 93 1023.3
20210917130804 69 33 0.0 0.0 0.00 0.01 0.01 93 1023.4
20210917130303 69 44 0.0 0.0 0.00 0.01 0.01 93 1023.4
20210917125804 69 24 0.0 0.0 0.01 0.01 0.01 93 1023.4
20210917125305 69 26 0.0 0.0 0.01 0.01 0.01 94 1023.4
20210917124804 69 41 0.0 0.0 0.01 0.01 0.01 94 1023.4
20210917124304 69 22 0.0 0.0 0.01 0.01 0.01 94 1023.4
20210917123803 69 19 0.0 0.0 0.01 0.01 0.01 94 1023.4
20210917123304 69 33 0.0 0.0 0.01 0.01 0.01 94 1023.4
20210917122803 69 34 0.0 0.0 0.01 0.01 0.01 94 1023.4
20210917122305 69 33 0.0 0.0 0.01 0.01 0.01 94 1023.3
20210917121804 69 38 0.0 3.0 0.01 0.01 0.01 94 1023.4
20210917121303 69 5 0.0 0.0 0.01 0.01 0.01 94 1023.4
20210917120803 69 25 0.0 0.0 0.01 0.01 0.01 94 1023.4
20210917120304 69 23 0.0 0.0 0.01 0.01 0.01 94 1023.4
20210917115803 69 27 0.0 0.0 0.00 0.00 0.00 94 1023.3
20210917115305 69 32 0.0 0.0 0.00 0.00 0.00 94 1023.3
20210917114804 69 34 0.0 0.0 0.00 0.00 0.00 94 1023.3
20210917114304 69 34 0.0 0.0 0.00 0.00 0.00 94 1023.2
20210917113803 69 23 0.0 0.0 0.00 0.00 0.00 94 1023.2
20210917113304 69 37 0.0 0.0 0.00 0.00 0.00 94 1023.3
20210917112804 69 35 0.0 0.0 0.00 0.00 0.00 94 1023.2
20210917112306 69 12 0.0 0.0 0.00 0.00 0.00 94 1023.1
20210917111803 69 24 0.0 0.0 0.00 0.00 0.00 94 1023.1
20210917111303 69 23 0.0 0.0 0.00 0.00 0.00 94 1023.1
20210917110804 69 1 0.0 0.0 0.00 0.00 0.00 94 1023.1
20210917110303 69 21 0.0 0.0 0.00 0.00 0.00 94 1023.0
20210917105803 69 347 0.0 0.0 0.00 0.00 0.00 94 1023.0
20210917105305 69 45 0.0 0.0 0.00 0.00 0.00 94 1022.9
20210917104803 69 36 0.0 0.0 0.00 0.00 0.00 94 1022.8
20210917104304 69 13 0.0 0.0 0.00 0.00 0.00 93 1022.8
20210917103804 69 22 0.0 0.0 0.00 0.00 0.00 93 1022.7
20210917103303 69 42 0.0 0.0 0.00 0.00 0.00 93 1022.8
20210917102803 69 26 0.0 0.0 0.00 0.00 0.00 93 1022.9
20210917102305 69 355 0.0 0.0 0.00 0.00 0.00 93 1022.8
20210917101803 69 29 0.0 0.0 0.00 0.00 0.00 93 1022.8
20210917101303 69 15 0.0 0.0 0.00 0.00 0.00 93 1022.7
20210917100803 69 35 0.0 0.0 0.00 0.00 0.00 93 1022.6
20210917100304 69 39 0.0 0.0 0.00 0.00 0.00 93 1022.5
20210917095804 69 50 0.0 0.0 0.00 0.00 0.00 93 1022.4
20210917095305 69 41 0.0 0.0 0.00 0.00 0.00 92 1022.3
20210917094804 69 26 0.0 0.0 0.00 0.00 0.00 92 1022.2
20210917094303 69 27 0.0 0.0 0.00 0.00 0.00 92 1022.3
20210917093804 69 40 0.0 0.0 0.00 0.00 0.00 92 1022.3
20210917093303 69 29 0.0 0.0 0.00 0.00 0.00 92 1022.1
20210917092804 69 29 0.0 0.0 0.00 0.00 0.00 92 1022.1
20210917092305 69 29 0.0 0.0 0.00 0.00 0.00 92 1022.0
20210917091804 69 20 0.0 0.0 0.00 0.00 0.00 92 1022.0
20210917091304 69 20 0.0 0.0 0.00 0.00 0.00 92 1022.0
20210917090803 69 19 0.0 0.0 0.00 0.00 0.00 92 1022.0
20210917090303 69 296 0.0 0.0 0.00 0.00 0.00 92 1022.0
20210917085804 69 296 0.0 0.0 0.00 0.00 0.00 92 1021.8
20210917085305 69 204 0.0 0.0 0.00 0.00 0.00 92 1021.8
20210917084804 69 121 0.0 0.0 0.00 0.00 0.00 92 1021.8
20210917084304 69 34 0.0 0.0 0.00 0.00 0.00 92 1021.8
20210917083803 69 34 0.0 0.0 0.00 0.00 0.00 92 1021.8
20210917083303 69 34 0.0 0.0 0.00 0.00 0.00 92 1021.8
20210917082804 69 34 0.0 0.0 0.00 0.00 0.00 91 1021.8
20210917082305 69 34 0.0 0.0 0.00 0.00 0.00 91 1021.8
20210917081803 69 34 0.0 0.0 0.00 0.00 0.00 91 1021.7
20210917081304 69 34 0.0 0.0 0.00 0.00 0.00 91 1021.6
20210917080804 69 34 0.0 0.0 0.00 0.00 0.00 91 1021.6
20210917080304 69 28 0.0 0.0 0.00 0.00 0.00 91 1021.6
20210917075803 69 18 0.0 0.0 0.00 0.00 0.00 91 1021.6
20210917075306 69 322 0.0 0.0 0.00 0.00 0.00 91 1021.6
20210917074804 69 30 0.0 0.0 0.00 0.00 0.00 91 1021.6
20210917074304 69 22 0.0 0.0 0.00 0.00 0.00 90 1021.6
20210917073803 69 349 0.0 0.0 0.00 0.00 0.00 90 1021.7
20210917073304 69 30 0.0 0.0 0.00 0.00 0.00 90 1021.6
20210917072803 69 40 0.0 0.0 0.00 0.00 0.00 90 1021.5
20210917072305 69 18 0.0 0.0 0.00 0.00 0.00 90 1021.5
20210917071803 69 15 0.0 0.0 0.00 0.00 0.00 89 1021.6
20210917071304 69 15 0.0 0.0 0.00 0.00 0.00 89 1021.6
20210917070804 69 28 0.0 0.0 0.00 0.00 0.00 89 1021.6
20210917070304 69 28 0.0 0.0 0.00 0.00 0.00 89 1021.7
20210917065804 69 340 0.0 0.0 0.00 0.00 0.00 89 1021.8
20210917065306 69 355 0.0 0.0 0.00 0.00 0.00 88 1021.7
20210917064804 69 45 0.0 0.0 0.00 0.00 0.00 88 1021.6
20210917064303 69 33 0.0 0.0 0.00 0.00 0.00 88 1021.7
20210917063803 69 30 0.0 0.0 0.00 0.00 0.00 88 1021.6
20210917063304 69 30 0.0 0.0 0.00 0.00 0.00 88 1021.6
20210917062804 69 28 0.0 0.0 0.00 0.00 0.00 87 1021.6
20210917062305 69 22 0.0 0.0 0.00 0.00 0.00 87 1021.6
20210917061803 69 2 0.0 0.0 0.00 0.00 0.00 87 1021.7
20210917061304 69 31 0.0 0.0 0.00 0.00 0.00 87 1021.8
20210917060803 69 27 0.0 0.0 0.00 0.00 0.00 87 1021.8
20210917060303 69 44 0.0 0.0 0.00 0.00 0.00 87 1021.7
20210917055804 69 27 0.0 0.0 0.00 0.00 0.00 87 1021.7
20210917055305 69 35 0.0 0.0 0.00 0.00 0.00 87 1021.7
20210917054803 69 34 0.0 0.0 0.00 0.00 0.00 87 1021.8
20210917054304 69 33 0.0 0.0 0.00 0.00 0.00 87 1021.8
20210917053803 70 42 0.0 1.0 0.00 0.00 0.00 87 1021.7
20210917053304 70 38 0.0 0.0 0.00 0.00 0.00 86 1021.8
20210917052803 70 26 0.0 0.0 0.00 0.00 0.00 86 1021.9
20210917052305 70 27 0.0 0.0 0.00 0.00 0.00 86 1021.9
20210917051804 70 40 0.0 0.0 0.00 0.00 0.00 86 1021.8
20210917051304 70 28 0.0 0.0 0.00 0.00 0.00 86 1021.7
20210917050804 70 38 0.0 0.0 0.00 0.00 0.00 86 1021.8
20210917050304 70 5 0.0 0.0 0.00 0.00 0.00 86 1021.9
20210917045803 70 22 0.0 0.0 0.00 0.00 0.00 86 1022.0
20210917045306 70 336 0.0 0.0 0.00 0.00 0.00 86 1022.0
20210917044804 70 33 0.0 0.0 0.00 0.00 0.00 86 1022.0
20210917044304 70 41 0.0 0.0 0.00 0.00 0.00 86 1022.0
20210917043803 70 34 0.0 0.0 0.00 0.00 0.00 86 1022.0
20210917043303 71 36 0.0 1.0 0.00 0.00 0.00 86 1021.9
20210917042804 71 25 0.0 0.0 0.00 0.00 0.00 86 1021.9
20210917042306 71 41 0.0 0.0 0.00 0.00 0.00 86 1022.0
20210917041804 71 25 0.0 0.0 0.00 0.00 0.00 86 1022.2
20210917041303 71 36 0.0 0.0 0.00 0.00 0.00 86 1022.3
20210917040817 71 35 0.0 0.0 0.00 0.00 0.00 86 1022.4
20210917040303 71 344 0.0 0.0 0.00 0.00 0.00 86 1022.5
20210917035803 71 0 0.0 0.0 0.00 0.00 0.00 86 1022.5
20210917035306 71 32 0.0 0.0 0.00 0.00 0.00 86 1022.5
20210917034803 71 29 0.0 0.0 0.00 0.00 0.00 86 1022.5
20210917034304 71 33 0.0 0.0 0.00 0.00 0.00 86 1022.4
20210917033804 71 16 0.0 0.0 0.00 0.00 0.00 86 1022.4
20210917033304 71 339 0.0 0.0 0.00 0.00 0.00 86 1022.4
20210917032803 71 44 0.0 0.0 0.00 0.00 0.00 86 1022.5
20210917032306 71 46 0.0 0.0 0.00 0.00 0.00 86 1022.5
20210917031803 71 46 0.0 0.0 0.00 0.00 0.00 86 1022.5
20210917031304 71 28 0.0 0.0 0.00 0.00 0.00 86 1022.5
20210917030804 71 304 0.0 0.0 0.00 0.00 0.00 86 1022.5
20210917030303 71 115 0.0 0.0 0.00 0.00 0.00 85 1022.4
20210917025804 71 115 0.0 0.0 0.00 0.00 0.00 85 1022.5
20210917025306 71 113 0.0 0.0 0.00 0.00 0.00 85 1022.5
20210917024803 71 87 0.0 0.0 0.00 0.00 0.00 85 1022.4
20210917024304 71 75 0.0 0.0 0.00 0.00 0.00 85 1022.4
20210917023804 71 78 0.0 0.0 0.00 0.00 0.00 85 1022.4
20210917023303 71 315 0.0 0.0 0.00 0.00 0.00 85 1022.4
20210917022804 71 14 0.0 0.0 0.00 0.00 0.00 85 1022.5
20210917022305 71 306 0.0 0.0 0.00 0.00 0.00 85 1022.5
20210917021804 71 325 0.0 0.0 0.00 0.00 0.00 86 1022.5
20210917021303 71 37 0.0 0.0 0.00 0.00 0.00 86 1022.7
20210917020803 71 29 0.0 0.0 0.00 0.00 0.00 85 1022.7
20210917020304 71 293 0.0 0.0 0.00 0.00 0.00 86 1022.6
20210917015804 71 53 0.0 0.0 0.00 0.00 0.00 85 1022.6
20210917015306 71 28 0.0 0.0 0.00 0.00 0.00 85 1022.5
20210917014804 71 41 0.0 0.0 0.00 0.00 0.00 85 1022.5
20210917014304 72 13 0.0 0.0 0.00 0.00 0.00 85 1022.5
20210917013804 72 16 0.0 0.0 0.00 0.00 0.00 85 1022.5
20210917013303 72 49 0.0 0.0 0.00 0.00 0.00 84 1022.5
20210917012803 72 44 0.0 0.0 0.00 0.00 0.00 84 1022.5
20210917012306 72 355 0.0 0.0 0.00 0.00 0.00 84 1022.6
20210917011804 72 327 0.0 0.0 0.00 0.00 0.00 84 1022.6
20210917011304 72 331 0.0 0.0 0.00 0.00 0.00 83 1022.6
20210917010804 72 355 0.0 0.0 0.00 0.00 0.00 83 1022.7
20210917010304 72 350 0.0 0.0 0.00 0.00 0.00 83 1022.7
20210917005804 72 9 0.0 0.0 0.00 0.00 0.00 83 1022.5
20210917005305 72 9 0.0 0.0 0.00 0.00 0.00 83 1022.5
20210917004804 72 28 0.0 0.0 0.00 0.00 0.00 83 1022.5
20210917004303 72 25 0.0 0.0 0.00 0.00 0.00 83 1022.5
20210917003804 72 21 0.0 0.0 0.00 0.00 0.00 83 1022.5
20210917003304 72 36 0.0 0.0 0.00 0.00 0.00 82 1022.4
20210917002805 72 318 0.0 0.0 0.00 0.00 0.00 82 1022.3
20210917002305 73 4 0.0 0.0 0.00 0.00 0.00 82 1022.3
20210917001804 73 37 0.0 0.0 0.00 0.00 0.00 82 1022.3
20210917001303 73 354 0.0 0.0 0.00 0.00 0.00 81 1022.2
20210917000803 73 75 0.0 0.0 0.00 0.00 0.00 81 1022.1
20210917000304 73 56 0.0 0.0 0.00 0.00 0.00 81 1022.0
20210916235803 73 356 0.0 0.0 0.00 0.00 0.00 81 1022.0
20210916235306 73 21 0.0 0.0 0.00 0.00 0.00 82 1021.9
20210916234803 73 34 0.0 0.0 0.00 0.00 0.00 81 1021.9
20210916234303 73 33 0.0 0.0 0.00 0.00 0.00 81 1021.8
20210916233803 74 50 0.0 0.0 0.00 0.00 0.00 81 1021.7
20210916233303 74 22 0.0 0.0 0.00 0.00 0.00 82 1021.6
20210916232803 74 24 0.0 0.0 0.00 0.00 0.00 82 1021.5
20210916232305 74 18 0.0 0.0 0.00 0.00 0.00 81 1021.6
20210916231803 74 105 0.0 0.0 0.00 0.00 0.00 81 1021.6
20210916231303 74 254 0.0 0.0 0.00 0.00 0.00 81 1021.6
20210916230804 74 102 0.0 0.0 0.00 0.00 0.00 81 1021.6
20210916230303 74 107 0.0 0.0 0.00 0.00 0.00 80 1021.5
20210916225804 74 91 0.0 1.0 0.00 0.00 0.00 80 1021.4
20210916225305 74 5 0.0 0.0 0.00 0.00 0.00 80 1021.3
20210916224803 74 308 0.0 0.0 0.00 0.00 0.00 80 1021.3
20210916224304 75 16 0.0 2.0 0.00 0.00 0.00 80 1021.2
20210916223803 75 84 0.0 1.0 0.00 0.00 0.00 80 1021.1
20210916223304 75 112 0.0 1.0 0.00 0.00 0.00 80 1021.0
20210916222804 75 351 0.0 0.0 0.00 0.00 0.00 79 1020.8
20210916222305 75 352 0.0 3.0 0.00 0.00 0.00 79 1020.8
20210916221804 75 90 0.0 0.0 0.00 0.00 0.00 79 1020.7
20210916221303 75 106 0.0 1.0 0.00 0.00 0.00 79 1020.7
20210916220803 76 39 0.0 0.0 0.00 0.00 0.00 79 1020.7
20210916220304 76 121 0.0 0.0 0.00 0.00 0.00 79 1020.6
20210916215803 76 45 0.0 0.0 0.00 0.00 0.00 79 1020.6
20210916215305 76 57 0.0 0.0 0.00 0.00 0.00 79 1020.6
20210916214803 76 121 0.0 0.0 0.00 0.00 0.00 78 1020.5
20210916214303 76 86 0.0 0.0 0.00 0.00 0.00 78 1020.5
20210916213803 76 37 0.0 1.0 0.00 0.00 0.00 78 1020.4
20210916213304 76 71 0.0 0.0 0.00 0.00 0.00 78 1020.3
20210916212803 77 83 0.0 3.0 0.00 0.00 0.00 77 1020.3
20210916212306 77 77 0.0 0.0 0.00 0.00 0.00 77 1020.3
20210916211804 77 38 0.0 0.0 0.00 0.00 0.00 77 1020.3
20210916211304 77 21 0.0 1.0 0.00 0.00 0.00 76 1020.3
20210916210804 78 43 0.0 0.0 0.00 0.00 0.00 76 1020.2
20210916210304 78 34 0.0 0.0 0.00 0.00 0.00 77 1020.1
20210916205804 78 26 0.0 0.0 0.00 0.00 0.00 76 1020.1
20210916205305 78 16 0.0 0.0 0.00 0.00 0.00 76 1020.0
20210916204804 78 343 0.0 0.0 0.00 0.00 0.00 76 1020.0
20210916204304 78 23 0.0 0.0 0.00 0.00 0.00 75 1020.0
20210916203804 78 32 0.0 0.0 0.00 0.00 0.00 75 1019.9
20210916203304 78 15 0.0 1.0 0.00 0.00 0.00 75 1019.8
20210916202804 78 32 0.0 0.0 0.00 0.00 0.00 75 1019.8
20210916202305 78 36 0.0 0.0 0.00 0.00 0.00 75 1019.7
20210916201803 79 4 0.0 1.0 0.00 0.00 0.00 75 1019.7
20210916201303 79 28 0.0 1.0 0.00 0.00 0.00 75 1019.6
20210916200803 78 35 0.0 0.0 0.00 0.00 0.00 75 1019.6
20210916200304 78 91 0.0 0.0 0.00 0.00 0.00 75 1019.6
20210916195803 78 42 0.0 0.0 0.00 0.00 0.00 75 1019.6
20210916195306 79 38 0.0 0.0 0.00 0.00 0.00 74 1019.6
20210916194803 79 29 0.0 0.0 0.00 0.00 0.00 75 1019.6
20210916194303 79 20 0.0 0.0 0.00 0.00 0.00 74 1019.5
20210916193803 79 338 0.0 0.0 0.00 0.00 0.00 75 1019.6
20210916193304 78 43 0.0 3.0 0.00 0.00 0.00 74 1019.6
20210916192804 79 31 0.0 1.0 0.00 0.00 0.00 75 1019.6
20210916192306 79 34 0.0 1.0 0.00 0.00 0.00 74 1019.7
20210916191804 79 30 0.0 0.0 0.00 0.00 0.00 73 1019.6
20210916191303 79 25 0.0 0.0 0.00 0.00 0.00 73 1019.7
20210916190804 79 39 0.0 1.0 0.00 0.00 0.00 73 1019.8
20210916190303 79 50 0.0 0.0 0.00 0.00 0.00 73 1019.8
20210916185804 79 5 0.0 0.0 0.00 0.00 0.00 74 1020.0
20210916185306 79 37 0.0 0.0 0.00 0.00 0.00 74 1020.0
20210916184803 79 142 0.0 2.0 0.00 0.00 0.00 74 1020.1
20210916184304 79 26 0.0 0.0 0.00 0.00 0.00 74 1020.2
20210916183803 78 33 0.0 0.0 0.00 0.00 0.00 75 1020.3
20210916183303 78 29 0.0 0.0 0.00 0.00 0.00 73 1020.4
20210916182803 78 30 0.0 0.0 0.00 0.00 0.00 73 1020.4
20210916182306 78 38 0.0 1.0 0.00 0.00 0.00 74 1020.5
20210916181804 78 0 0.0 0.0 0.00 0.00 0.00 75 1020.6
20210916181304 78 22 0.0 0.0 0.00 0.00 0.00 74 1020.7
20210916180803 78 31 0.0 1.0 0.00 0.00 0.00 74 1020.7
20210916180303 78 116 0.0 0.0 0.00 0.00 0.00 72 1020.8
20210916175803 79 36 0.0 2.0 0.00 0.00 0.00 72 1020.8
20210916175305 78 2 0.0 1.0 0.00 0.00 0.00 76 1020.8
20210916174804 77 351 0.0 0.0 0.00 0.00 0.00 76 1020.9
20210916174304 77 78 0.0 0.0 0.00 0.00 0.00 75 1021.0
20210916173804 78 58 0.0 0.0 0.00 0.00 0.00 76 1021.0
20210916173303 77 23 0.0 0.0 0.00 0.00 0.00 77 1021.0
20210916172804 77 38 0.0 0.0 0.00 0.00 0.00 76 1021.0
20210916172305 77 38 0.0 0.0 0.00 0.00 0.00 76 1020.9
20210916171803 77 28 0.0 0.0 0.00 0.00 0.00 77 1020.9
20210916171304 77 16 0.0 2.0 0.00 0.00 0.00 77 1021.0
20210916170803 77 27 1.0 2.0 0.00 0.00 0.00 77 1020.9
20210916170303 77 32 0.0 0.0 0.00 0.00 0.00 77 1020.9
20210916165804 76 312 0.0 0.0 0.00 0.00 0.00 78 1020.9
20210916165305 76 13 0.0 0.0 0.00 0.00 0.00 78 1021.0
20210916164803 76 26 0.0 0.0 0.00 0.00 0.00 79 1020.9
20210916164303 76 25 0.0 0.0 0.00 0.00 0.00 79 1020.9
20210916163804 75 22 0.0 0.0 0.00 0.00 0.00 78 1021.0
20210916163304 76 12 0.0 0.0 0.00 0.00 0.00 79 1021.0
20210916162803 75 47 0.0 0.0 0.00 0.00 0.00 80 1021.0
20210916162306 75 32 0.0 0.0 0.00 0.00 0.00 80 1021.0
20210916161803 75 27 0.0 0.0 0.00 0.00 0.00 80 1020.9
20210916161303 75 4 0.0 0.0 0.00 0.00 0.00 81 1021.0
20210916160804 74 32 0.0 2.0 0.00 0.00 0.00 82 1021.0
20210916160303 74 40 0.0 0.0 0.00 0.00 0.00 82 1021.1
20210916155803 74 13 0.0 0.0 0.00 0.00 0.00 81 1021.1
20210916155305 74 354 0.0 0.0 0.00 0.00 0.00 82 1021.1
20210916154803 74 30 0.0 3.0 0.00 0.00 0.00 82 1021.0
20210916154303 74 41 0.0 1.0 0.00 0.00 0.00 82 1021.0
20210916153803 74 2 0.0 0.0 0.00 0.00 0.00 82 1020.9